TimeMDT,TemperatureF,Dew PointF,Humidity,Sea Level PressureIn,VisibilityMPH,Wind Direction,Wind SpeedMPH,Gust SpeedMPH,PrecipitationIn,Events,Conditions,WindDirDegrees,DateUTC
12:53 AM,70.0,53.1,55,29.75,10.0,Variable,6.9,-,0.00,Rain,Light Rain,0,2013-07-05 06:53:00
1:53 AM,70.0,51.1,51,29.76,10.0,ESE,5.8,-,0.00,,Mostly Cloudy,110,2013-07-05 07:53:00
2:53 AM,69.1,53.1,57,29.75,10.0,East,5.8,-,N/A,,Mostly Cloudy,100,2013-07-05 08:53:00
3:53 AM,64.9,53.1,65,29.75,10.0,Calm,Calm,-,N/A,,Clear,0,2013-07-05 09:53:00
4:53 AM,64.0,54.0,70,29.75,10.0,Calm,Calm,-,N/A,,Clear,0,2013-07-05 10:53:00
5:53 AM,62.1,52.0,70,29.76,10.0,Calm,Calm,-,N/A,,Mostly Cloudy,0,2013-07-05 11:53:00
6:53 AM,64.0,52.0,65,29.81,10.0,Calm,Calm,-,N/A,,Overcast,0,2013-07-05 12:53:00
7:53 AM,63.0,55.0,75,29.82,9.0,SE,11.5,-,0.00,Rain,Light Rain,130,2013-07-05 13:53:00
8:53 AM,66.9,54.0,63,29.82,10.0,NE,5.8,-,0.00,,Clear,50,2013-07-05 14:53:00
9:53 AM,71.1,54.0,55,29.79,10.0,North,3.5,-,N/A,,Clear,10,2013-07-05 15:53:00
10:53 AM,75.0,52.0,44,29.79,10.0,Calm,Calm,-,N/A,,Clear,0,2013-07-05 16:53:00
11:53 AM,79.0,51.1,38,29.77,10.0,Calm,Calm,-,N/A,,Clear,0,2013-07-05 17:53:00
12:53 PM,82.0,48.0,30,29.76,10.0,Variable,4.6,-,N/A,,Clear,0,2013-07-05 18:53:00
1:53 PM,84.9,48.9,29,29.72,10.0,Calm,Calm,-,N/A,,Clear,0,2013-07-05 19:53:00
2:53 PM,91.0,45.0,20,29.67,10.0,West,10.4,23.0,N/A,,Clear,270,2013-07-05 20:53:00
3:19 PM,91.4,44.6,20,29.92,10.0,NW,11.5,16.1,N/A,Thunderstorm,Thunderstorm,320,2013-07-05 21:19:00
3:40 PM,89.6,51.8,27,29.92,10.0,North,6.9,-,N/A,,Clear,350,2013-07-05 21:40:00
3:53 PM,88.0,50.0,27,29.66,10.0,NE,10.4,-,N/A,,Clear,50,2013-07-05 21:53:00
4:53 PM,91.0,45.0,20,29.63,10.0,WSW,13.8,18.4,N/A,,Clear,250,2013-07-05 22:53:00
5:53 PM,91.0,44.1,20,29.62,10.0,WSW,10.4,-,N/A,,Partly Cloudy,250,2013-07-05 23:53:00
6:53 PM,89.1,44.1,21,29.62,10.0,West,12.7,-,N/A,,Clear,260,2013-07-06 00:53:00
7:53 PM,88.0,43.0,21,29.62,10.0,West,9.2,-,N/A,,Clear,260,2013-07-06 01:53:00
8:53 PM,82.9,46.9,28,29.64,10.0,SSE,4.6,-,N/A,,Clear,150,2013-07-06 02:53:00
9:53 PM,79.0,48.9,35,29.68,10.0,ENE,10.4,-,N/A,,Mostly Cloudy,60,2013-07-06 03:53:00
10:53 PM,79.0,48.9,35,29.69,10.0,South,5.8,-,0.00,,Mostly Cloudy,190,2013-07-06 04:53:00
11:06 PM,75.2,55.4,50,29.95,10.0,SE,9.2,-,0.00,Rain-Thunderstorm,Light Rain,140,2013-07-06 05:06:00
11:30 PM,69.8,53.6,56,30.01,10.0,West,15.0,21.9,0.01,Rain-Thunderstorm,Light Rain,280,2013-07-06 05:30:00
11:53 PM,69.1,54.0,58,29.79,10.0,NW,10.4,17.3,0.01,Rain-Thunderstorm,Light Thunderstorms and Rain,310,2013-07-06 05:53:00